owner,sensor,date,latitude,longitude,vertical_datum,wind_speed,wind_to_direction,wind_speed_of_gust,qcFlag 
LOOP,urn:ioos:station:wmo:lopl1:1,2017-10-01T00:55:00Z,28.8850,-90.0250,10.0,5.7,70.0,6.2,'1111122,1111122,1111122' 
LOOP,urn:ioos:station:wmo:lopl1:1,2017-10-01T01:55:00Z,28.8850,-90.0250,10.0,5.1,80.0,5.7,'1111122,1111122,1111122' 
LOOP,urn:ioos:station:wmo:lopl1:1,2017-10-01T02:55:00Z,28.8850,-90.0250,10.0,4.6,80.0,5.1,'1111122,1111122,1111122' 
LOOP,urn:ioos:station:wmo:lopl1:1,2017-10-01T03:55:00Z,28.8850,-90.0250,10.0,4.6,70.0,5.7,'1111122,1111122,1111122' 
LOOP,urn:ioos:station:wmo:lopl1:1,2017-10-01T04:55:00Z,28.8850,-90.0250,10.0,4.1,70.0,4.6,'1111122,1111122,1111122' 
LOOP,urn:ioos:station:wmo:lopl1:1,2017-10-01T05:55:00Z,28.8850,-90.0250,10.0,4.1,60.0,5.1,'1111122,1111122,1111122' 
LOOP,urn:ioos:station:wmo:lopl1:1,2017-10-01T06:55:00Z,28.8850,-90.0250,10.0,4.1,70.0,5.1,'1111122,1111122,1111122' 
LOOP,urn:ioos:station:wmo:lopl1:1,2017-10-01T07:56:00Z,28.8850,-90.0250,10.0,4.1,60.0,5.1,'1111122,1111122,1111122' 
LOOP,urn:ioos:station:wmo:lopl1:1,2017-10-01T08:56:00Z,28.8850,-90.0250,10.0,4.6,50.0,6.2,'1111122,1111122,1111122' 
LOOP,urn:ioos:station:wmo:lopl1:1,2017-10-01T09:56:00Z,28.8850,-90.0250,10.0,5.1,70.0,6.7,'1111122,1111122,1111122' 
LOOP,urn:ioos:station:wmo:lopl1:1,2017-10-01T10:56:00Z,28.8850,-90.0250,10.0,4.6,40.0,6.2,'1111122,1111122,1111122' 
LOOP,urn:ioos:station:wmo:lopl1:1,2017-10-01T11:56:00Z,28.8850,-90.0250,10.0,4.1,50.0,5.1,'1111122,1111122,1111122' 
LOOP,urn:ioos:station:wmo:lopl1:1,2017-10-01T12:56:00Z,28.8850,-90.0250,10.0,7.7,90.0,8.2,'1111122,1111122,1111122' 
LOOP,urn:ioos:station:wmo:lopl1:1,2017-10-01T14:01:00Z,28.8850,-90.0250,10.0,9.3,90.0,9.8,'1111122,1111122,1111122' 
LOOP,urn:ioos:station:wmo:lopl1:1,2017-10-01T15:01:00Z,28.8850,-90.0250,10.0,8.8,90.0,9.3,'1111122,1111122,1111122' 
LOOP,urn:ioos:station:wmo:lopl1:1,2017-10-01T16:01:00Z,28.8850,-90.0250,10.0,8.8,80.0,9.8,'1111122,1111122,1111122' 
LOOP,urn:ioos:station:wmo:lopl1:1,2017-10-01T17:01:00Z,28.8850,-90.0250,10.0,9.3,90.0,10.3,'1111122,1111122,1111122' 
LOOP,urn:ioos:station:wmo:lopl1:1,2017-10-01T18:01:00Z,28.8850,-90.0250,10.0,9.8,70.0,11.3,'1111122,1111122,1111122' 
LOOP,urn:ioos:station:wmo:lopl1:1,2017-10-01T19:01:00Z,28.8850,-90.0250,10.0,9.3,60.0,10.8,'1111122,1111122,1111122' 
LOOP,urn:ioos:station:wmo:lopl1:1,2017-10-01T20:01:00Z,28.8850,-90.0250,10.0,9.3,70.0,10.8,'1111122,1111122,1111122' 
LOOP,urn:ioos:station:wmo:lopl1:1,2017-10-01T21:01:00Z,28.8850,-90.0250,10.0,9.8,60.0,11.3,'1111122,1111122,1111122' 
LOOP,urn:ioos:station:wmo:lopl1:1,2017-10-01T22:01:00Z,28.8850,-90.0250,10.0,9.8,60.0,11.8,'1111122,1111122,1111122' 
LOOP,urn:ioos:station:wmo:lopl1:1,2017-10-01T23:01:00Z,28.8850,-90.0250,10.0,9.8,60.0,12.9,'1111122,1111122,1111122' 
LOOP,urn:ioos:station:wmo:lopl1:1,2017-10-02T00:01:00Z,28.8850,-90.0250,10.0,11.3,40.0,15.4,'1111122,1111122,1111122' 
LOOP,urn:ioos:station:wmo:lopl1:1,2017-10-02T01:01:00Z,28.8850,-90.0250,10.0,12.4,40.0,16.0,'1111122,1111122,1111122' 
LOOP,urn:ioos:station:wmo:lopl1:1,2017-10-02T02:01:00Z,28.8850,-90.0250,10.0,13.4,60.0,16.0,'1111122,1111122,1111122' 
LOOP,urn:ioos:station:wmo:lopl1:1,2017-10-02T03:01:00Z,28.8850,-90.0250,10.0,12.4,50.0,14.9,'1111122,1111122,1111122' 
LOOP,urn:ioos:station:wmo:lopl1:1,2017-10-02T04:01:00Z,28.8850,-90.0250,10.0,13.4,40.0,16.5,'1111122,1111122,1111122' 
LOOP,urn:ioos:station:wmo:lopl1:1,2017-10-02T05:01:00Z,28.8850,-90.0250,10.0,13.4,40.0,16.5,'1111122,1111122,1111122' 
LOOP,urn:ioos:station:wmo:lopl1:1,2017-10-02T06:01:00Z,28.8850,-90.0250,10.0,9.8,40.0,12.9,'1111122,1111122,1111122' 
LOOP,urn:ioos:station:wmo:lopl1:1,2017-10-02T07:01:00Z,28.8850,-90.0250,10.0,8.2,100.0,9.3,'1111122,1111122,1111122' 
LOOP,urn:ioos:station:wmo:lopl1:1,2017-10-02T08:01:00Z,28.8850,-90.0250,10.0,8.2,120.0,9.8,'1111122,1111122,1111122' 
LOOP,urn:ioos:station:wmo:lopl1:1,2017-10-02T09:01:00Z,28.8850,-90.0250,10.0,8.2,110.0,9.8,'1111122,1111122,1111122' 
LOOP,urn:ioos:station:wmo:lopl1:1,2017-10-02T10:01:00Z,28.8850,-90.0250,10.0,11.3,140.0,12.4,'1111122,1111122,1111122' 
LOOP,urn:ioos:station:wmo:lopl1:1,2017-10-02T11:01:00Z,28.8850,-90.0250,10.0,9.3,130.0,9.8,'1111122,1111122,1111122' 
LOOP,urn:ioos:station:wmo:lopl1:1,2017-10-02T12:01:00Z,28.8850,-90.0250,10.0,10.3,150.0,11.8,'1111122,1111122,1111122' 
LOOP,urn:ioos:station:wmo:lopl1:1,2017-10-02T13:01:00Z,28.8850,-90.0250,10.0,8.8,110.0,11.8,'1111122,1111122,1111122' 
LOOP,urn:ioos:station:wmo:lopl1:1,2017-10-02T14:01:00Z,28.8850,-90.0250,10.0,6.7,110.0,7.7,'1111122,1111122,1111122' 
LOOP,urn:ioos:station:wmo:lopl1:1,2017-10-02T15:01:00Z,28.8850,-90.0250,10.0,12.9,120.0,14.9,'1111122,1111122,1111122' 
LOOP,urn:ioos:station:wmo:lopl1:1,2017-10-02T16:01:00Z,28.8850,-90.0250,10.0,8.2,-9999.0,11.3,'1111122,1111122,1111122' 
LOOP,urn:ioos:station:wmo:lopl1:1,2017-10-02T17:01:00Z,28.8850,-90.0250,10.0,4.1,-9999.0,6.2,'1111122,1111122,1111122' 
LOOP,urn:ioos:station:wmo:lopl1:1,2017-10-02T18:06:00Z,28.8850,-90.0250,10.0,10.3,140.0,11.8,'1111122,1111122,1111122' 
LOOP,urn:ioos:station:wmo:lopl1:1,2017-10-02T19:06:00Z,28.8850,-90.0250,10.0,10.3,140.0,11.8,'1111122,1111122,1111122' 
LOOP,urn:ioos:station:wmo:lopl1:1,2017-10-02T20:06:00Z,28.8850,-90.0250,10.0,9.8,130.0,10.8,'1111122,1111122,1111122' 
LOOP,urn:ioos:station:wmo:lopl1:1,2017-10-02T21:06:00Z,28.8850,-90.0250,10.0,9.3,120.0,10.3,'1111122,1111122,1111122' 
LOOP,urn:ioos:station:wmo:lopl1:1,2017-10-02T22:06:00Z,28.8850,-90.0250,10.0,10.3,80.0,11.8,'1111122,1111122,1111122' 
LOOP,urn:ioos:station:wmo:lopl1:1,2017-10-02T23:06:00Z,28.8850,-90.0250,10.0,9.3,110.0,10.8,'1111122,1111122,1111122' 
LOOP,urn:ioos:station:wmo:lopl1:1,2017-10-03T00:06:00Z,28.8850,-90.0250,10.0,12.4,110.0,13.4,'1111122,1111122,1111122' 
LOOP,urn:ioos:station:wmo:lopl1:1,2017-10-03T01:06:00Z,28.8850,-90.0250,10.0,11.8,120.0,13.4,'1111122,1111122,1111122' 
LOOP,urn:ioos:station:wmo:lopl1:1,2017-10-03T02:06:00Z,28.8850,-90.0250,10.0,11.3,110.0,12.4,'1111122,1111122,1111122' 
LOOP,urn:ioos:station:wmo:lopl1:1,2017-10-03T03:06:00Z,28.8850,-90.0250,10.0,11.3,110.0,12.4,'1111122,1111122,1111122' 
LOOP,urn:ioos:station:wmo:lopl1:1,2017-10-03T04:06:00Z,28.8850,-90.0250,10.0,12.9,110.0,14.4,'1111122,1111122,1111122' 
LOOP,urn:ioos:station:wmo:lopl1:1,2017-10-03T05:06:00Z,28.8850,-90.0250,10.0,12.4,110.0,14.4,'1111122,1111122,1111122' 
LOOP,urn:ioos:station:wmo:lopl1:1,2017-10-03T06:06:00Z,28.8850,-90.0250,10.0,13.4,110.0,14.9,'1111122,1111122,1111122' 
LOOP,urn:ioos:station:wmo:lopl1:1,2017-10-03T07:06:00Z,28.8850,-90.0250,10.0,13.4,110.0,14.9,'1111122,1111122,1111122' 
LOOP,urn:ioos:station:wmo:lopl1:1,2017-10-03T08:06:00Z,28.8850,-90.0250,10.0,13.4,100.0,14.9,'1111122,1111122,1111122' 
LOOP,urn:ioos:station:wmo:lopl1:1,2017-10-03T09:06:00Z,28.8850,-90.0250,10.0,12.9,110.0,14.4,'1111122,1111122,1111122' 
LOOP,urn:ioos:station:wmo:lopl1:1,2017-10-03T10:06:00Z,28.8850,-90.0250,10.0,12.4,110.0,13.9,'1111122,1111122,1111122' 
LOOP,urn:ioos:station:wmo:lopl1:1,2017-10-03T11:06:00Z,28.8850,-90.0250,10.0,13.4,115.0,14.6,'11111222,11111222,11111222' 
LOOP,urn:ioos:station:wmo:lopl1:1,2017-10-03T12:06:00Z,28.8850,-90.0250,10.0,12.9,110.0,13.9,'1111122,1111122,1111122' 
LOOP,urn:ioos:station:wmo:lopl1:1,2017-10-03T13:06:00Z,28.8850,-90.0250,10.0,12.9,110.0,13.9,'1111122,1111122,1111122' 
LOOP,urn:ioos:station:wmo:lopl1:1,2017-10-03T14:06:00Z,28.8850,-90.0250,10.0,12.9,100.0,14.4,'1111122,1111122,1111122' 
LOOP,urn:ioos:station:wmo:lopl1:1,2017-10-03T15:06:00Z,28.8850,-90.0250,10.0,11.3,100.0,13.9,'1111122,1111122,1111122' 
LOOP,urn:ioos:station:wmo:lopl1:1,2017-10-03T16:06:00Z,28.8850,-90.0250,10.0,11.3,90.0,12.9,'1111122,1111122,1111122' 
LOOP,urn:ioos:station:wmo:lopl1:1,2017-10-03T17:06:00Z,28.8850,-90.0250,10.0,11.3,100.0,12.9,'1111122,1111122,1111122' 
LOOP,urn:ioos:station:wmo:lopl1:1,2017-10-03T18:06:00Z,28.8850,-90.0250,10.0,11.3,100.0,12.9,'1111122,1111122,1111122' 
LOOP,urn:ioos:station:wmo:lopl1:1,2017-10-03T19:11:00Z,28.8850,-90.0250,10.0,12.9,90.0,13.9,'1111122,1111122,1111122' 
LOOP,urn:ioos:station:wmo:lopl1:1,2017-10-03T20:11:00Z,28.8850,-90.0250,10.0,12.9,80.0,13.9,'1111122,1111122,1111122' 
LOOP,urn:ioos:station:wmo:lopl1:1,2017-10-03T21:11:00Z,28.8850,-90.0250,10.0,12.9,70.0,14.4,'1111122,1111122,1111122' 
LOOP,urn:ioos:station:wmo:lopl1:1,2017-10-03T22:11:00Z,28.8850,-90.0250,10.0,13.4,80.0,15.4,'1111122,1111122,1111122' 
LOOP,urn:ioos:station:wmo:lopl1:1,2017-10-03T23:11:00Z,28.8850,-90.0250,10.0,13.9,70.0,16.0,'1111122,1111122,1111122' 
LOOP,urn:ioos:station:wmo:lopl1:1,2017-10-04T00:11:00Z,28.8850,-90.0250,10.0,13.4,70.0,14.9,'1111122,1111122,1111122' 
LOOP,urn:ioos:station:wmo:lopl1:1,2017-10-04T01:11:00Z,28.8850,-90.0250,10.0,13.4,60.0,15.4,'1111122,1111122,1111122' 
LOOP,urn:ioos:station:wmo:lopl1:1,2017-10-04T02:11:00Z,28.8850,-90.0250,10.0,13.9,70.0,14.9,'1111122,1111122,1111122' 
LOOP,urn:ioos:station:wmo:lopl1:1,2017-10-04T03:11:00Z,28.8850,-90.0250,10.0,13.4,70.0,16.0,'1111122,1111122,1111122' 
LOOP,urn:ioos:station:wmo:lopl1:1,2017-10-04T04:11:00Z,28.8850,-90.0250,10.0,12.9,80.0,14.4,'1111122,1111122,1111122' 
LOOP,urn:ioos:station:wmo:lopl1:1,2017-10-04T05:11:00Z,28.8850,-90.0250,10.0,12.9,70.0,14.4,'1111122,1111122,1111122' 
LOOP,urn:ioos:station:wmo:lopl1:1,2017-10-04T06:11:00Z,28.8850,-90.0250,10.0,11.8,70.0,13.4,'1111122,1111122,1111122' 
LOOP,urn:ioos:station:wmo:lopl1:1,2017-10-04T07:11:00Z,28.8850,-90.0250,10.0,12.4,70.0,13.9,'1111122,1111122,1111122' 
LOOP,urn:ioos:station:wmo:lopl1:1,2017-10-04T08:11:00Z,28.8850,-90.0250,10.0,11.8,70.0,13.4,'1111122,1111122,1111122' 
LOOP,urn:ioos:station:wmo:lopl1:1,2017-10-04T09:11:00Z,28.8850,-90.0250,10.0,11.8,80.0,13.4,'1111122,1111122,1111122' 
LOOP,urn:ioos:station:wmo:lopl1:1,2017-10-04T10:11:00Z,28.8850,-90.0250,10.0,12.4,71.0,14.4,'11111222,11111222,11111222' 
LOOP,urn:ioos:station:wmo:lopl1:1,2017-10-04T11:11:00Z,28.8850,-90.0250,10.0,12.9,80.0,14.4,'1111122,1111122,1111122' 
LOOP,urn:ioos:station:wmo:lopl1:1,2017-10-04T12:11:00Z,28.8850,-90.0250,10.0,12.9,70.0,13.9,'1111122,1111122,1111122' 
LOOP,urn:ioos:station:wmo:lopl1:1,2017-10-04T13:11:00Z,28.8850,-90.0250,10.0,12.9,80.0,14.4,'1111122,1111122,1111122' 
LOOP,urn:ioos:station:wmo:lopl1:1,2017-10-04T14:11:00Z,28.8850,-90.0250,10.0,12.4,80.0,14.4,'1111122,1111122,1111122' 
LOOP,urn:ioos:station:wmo:lopl1:1,2017-10-04T15:11:00Z,28.8850,-90.0250,10.0,12.4,70.0,13.4,'1111122,1111122,1111122' 
LOOP,urn:ioos:station:wmo:lopl1:1,2017-10-04T16:11:00Z,28.8850,-90.0250,10.0,11.8,80.0,13.4,'1111122,1111122,1111122' 
LOOP,urn:ioos:station:wmo:lopl1:1,2017-10-04T17:11:00Z,28.8850,-90.0250,10.0,11.8,70.0,13.4,'1111122,1111122,1111122' 
LOOP,urn:ioos:station:wmo:lopl1:1,2017-10-04T18:11:00Z,28.8850,-90.0250,10.0,11.3,70.0,12.9,'1111122,1111122,1111122' 
LOOP,urn:ioos:station:wmo:lopl1:1,2017-10-04T19:11:00Z,28.8850,-90.0250,10.0,10.8,60.0,12.4,'1111122,1111122,1111122' 
LOOP,urn:ioos:station:wmo:lopl1:1,2017-10-04T20:11:00Z,28.8850,-90.0250,10.0,9.8,70.0,11.3,'1111122,1111122,1111122' 
LOOP,urn:ioos:station:wmo:lopl1:1,2017-10-04T21:11:00Z,28.8850,-90.0250,10.0,9.8,60.0,12.4,'1111122,1111122,1111122' 
LOOP,urn:ioos:station:wmo:lopl1:1,2017-10-04T22:11:00Z,28.8850,-90.0250,10.0,10.3,60.0,12.9,'1111122,1111122,1111122' 
LOOP,urn:ioos:station:wmo:lopl1:1,2017-10-04T23:11:00Z,28.8850,-90.0250,10.0,10.8,70.0,13.4,'1111122,1111122,1111122' 
LOOP,urn:ioos:station:wmo:lopl1:1,2017-10-05T00:16:00Z,28.8850,-90.0250,10.0,10.3,70.0,12.4,'1111122,1111122,1111122' 
LOOP,urn:ioos:station:wmo:lopl1:1,2017-10-05T01:16:00Z,28.8850,-90.0250,10.0,11.3,60.0,12.4,'1111122,1111122,1111122' 
LOOP,urn:ioos:station:wmo:lopl1:1,2017-10-05T02:16:00Z,28.8850,-90.0250,10.0,10.3,70.0,12.9,'1111122,1111122,1111122' 
LOOP,urn:ioos:station:wmo:lopl1:1,2017-10-05T03:16:00Z,28.8850,-90.0250,10.0,11.3,70.0,12.9,'1111122,1111122,1111122' 
LOOP,urn:ioos:station:wmo:lopl1:1,2017-10-05T04:16:00Z,28.8850,-90.0250,10.0,12.4,80.0,13.9,'1111122,1111122,1111122' 
LOOP,urn:ioos:station:wmo:lopl1:1,2017-10-05T05:16:00Z,28.8850,-90.0250,10.0,10.8,70.0,12.4,'1111122,1111122,1111122' 
LOOP,urn:ioos:station:wmo:lopl1:1,2017-10-05T06:16:00Z,28.8850,-90.0250,10.0,10.3,70.0,11.3,'1111122,1111122,1111122' 
LOOP,urn:ioos:station:wmo:lopl1:1,2017-10-05T07:16:00Z,28.8850,-90.0250,10.0,8.2,50.0,9.8,'1111122,1111122,1111122' 
LOOP,urn:ioos:station:wmo:lopl1:1,2017-10-05T08:16:00Z,28.8850,-90.0250,10.0,8.2,70.0,10.8,'1111122,1111122,1111122' 
LOOP,urn:ioos:station:wmo:lopl1:1,2017-10-05T09:16:00Z,28.8850,-90.0250,10.0,9.3,60.0,11.3,'1111122,1111122,1111122' 
LOOP,urn:ioos:station:wmo:lopl1:1,2017-10-05T10:16:00Z,28.8850,-90.0250,10.0,10.3,60.0,12.4,'1111122,1111122,1111122' 
LOOP,urn:ioos:station:wmo:lopl1:1,2017-10-05T11:16:00Z,28.8850,-90.0250,10.0,10.3,70.0,11.8,'1111122,1111122,1111122' 
LOOP,urn:ioos:station:wmo:lopl1:1,2017-10-05T12:16:00Z,28.8850,-90.0250,10.0,10.8,70.0,12.4,'1111122,1111122,1111122' 
LOOP,urn:ioos:station:wmo:lopl1:1,2017-10-05T13:16:00Z,28.8850,-90.0250,10.0,11.3,70.0,13.4,'1111122,1111122,1111122' 
LOOP,urn:ioos:station:wmo:lopl1:1,2017-10-05T14:16:00Z,28.8850,-90.0250,10.0,10.3,70.0,12.4,'1111122,1111122,1111122' 
LOOP,urn:ioos:station:wmo:lopl1:1,2017-10-05T15:16:00Z,28.8850,-90.0250,10.0,10.8,70.0,12.4,'1111122,1111122,1111122' 
LOOP,urn:ioos:station:wmo:lopl1:1,2017-10-05T16:16:00Z,28.8850,-90.0250,10.0,10.8,70.0,12.9,'1111122,1111122,1111122' 
LOOP,urn:ioos:station:wmo:lopl1:1,2017-10-05T17:16:00Z,28.8850,-90.0250,10.0,8.8,60.0,11.8,'1111122,1111122,1111122' 
LOOP,urn:ioos:station:wmo:lopl1:1,2017-10-05T18:16:00Z,28.8850,-90.0250,10.0,9.3,60.0,11.3,'1111122,1111122,1111122' 
LOOP,urn:ioos:station:wmo:lopl1:1,2017-10-05T19:16:00Z,28.8850,-90.0250,10.0,8.4,69.0,10.8,'11111222,11111222,11111222' 
LOOP,urn:ioos:station:wmo:lopl1:1,2017-10-05T20:16:00Z,28.8850,-90.0250,10.0,8.8,60.0,11.3,'1111122,1111122,1111122' 
LOOP,urn:ioos:station:wmo:lopl1:1,2017-10-05T21:16:00Z,28.8850,-90.0250,10.0,8.8,60.0,10.3,'1111122,1111122,1111122' 
LOOP,urn:ioos:station:wmo:lopl1:1,2017-10-05T22:16:00Z,28.8850,-90.0250,10.0,8.8,60.0,11.3,'1111122,1111122,1111122' 
LOOP,urn:ioos:station:wmo:lopl1:1,2017-10-05T23:16:00Z,28.8850,-90.0250,10.0,9.8,70.0,11.3,'1111122,1111122,1111122' 
LOOP,urn:ioos:station:wmo:lopl1:1,2017-10-06T00:16:00Z,28.8850,-90.0250,10.0,8.8,50.0,10.8,'1111122,1111122,1111122' 
LOOP,urn:ioos:station:wmo:lopl1:1,2017-10-06T01:16:00Z,28.8850,-90.0250,10.0,9.8,60.0,12.4,'1111122,1111122,1111122' 
LOOP,urn:ioos:station:wmo:lopl1:1,2017-10-06T02:21:00Z,28.8850,-90.0250,10.0,8.2,40.0,11.3,'1111122,1111122,1111122' 
LOOP,urn:ioos:station:wmo:lopl1:1,2017-10-06T03:21:00Z,28.8850,-90.0250,10.0,7.2,30.0,9.3,'1111122,1111122,1111122' 
LOOP,urn:ioos:station:wmo:lopl1:1,2017-10-06T04:21:00Z,28.8850,-90.0250,10.0,7.7,40.0,8.8,'1111122,1111122,1111122' 
LOOP,urn:ioos:station:wmo:lopl1:1,2017-10-06T05:21:00Z,28.8850,-90.0250,10.0,8.2,20.0,10.3,'1111122,1111122,1111122' 
LOOP,urn:ioos:station:wmo:lopl1:1,2017-10-06T06:21:00Z,28.8850,-90.0250,10.0,9.8,20.0,11.8,'1111122,1111122,1111122' 
LOOP,urn:ioos:station:wmo:lopl1:1,2017-10-06T07:21:00Z,28.8850,-90.0250,10.0,10.8,20.0,12.9,'1111122,1111122,1111122' 
LOOP,urn:ioos:station:wmo:lopl1:1,2017-10-06T08:21:00Z,28.8850,-90.0250,10.0,11.8,20.0,13.9,'1111122,1111122,1111122' 
LOOP,urn:ioos:station:wmo:lopl1:1,2017-10-06T09:21:00Z,28.8850,-90.0250,10.0,11.3,30.0,12.9,'1111122,1111122,1111122' 
LOOP,urn:ioos:station:wmo:lopl1:1,2017-10-06T10:21:00Z,28.8850,-90.0250,10.0,10.3,40.0,11.8,'1111122,1111122,1111122' 
LOOP,urn:ioos:station:wmo:lopl1:1,2017-10-06T11:21:00Z,28.8850,-90.0250,10.0,10.8,40.0,13.9,'1111122,1111122,1111122' 
LOOP,urn:ioos:station:wmo:lopl1:1,2017-10-06T12:21:00Z,28.8850,-90.0250,10.0,10.8,60.0,13.4,'1111122,1111122,1111122' 
LOOP,urn:ioos:station:wmo:lopl1:1,2017-10-06T13:21:00Z,28.8850,-90.0250,10.0,11.8,50.0,14.4,'1111122,1111122,1111122' 
LOOP,urn:ioos:station:wmo:lopl1:1,2017-10-06T14:21:00Z,28.8850,-90.0250,10.0,9.8,60.0,11.8,'1111122,1111122,1111122' 
LOOP,urn:ioos:station:wmo:lopl1:1,2017-10-06T15:21:00Z,28.8850,-90.0250,10.0,10.3,50.0,12.9,'1111122,1111122,1111122' 
LOOP,urn:ioos:station:wmo:lopl1:1,2017-10-06T16:21:00Z,28.8850,-90.0250,10.0,11.3,50.0,14.4,'1111122,1111122,1111122' 
LOOP,urn:ioos:station:wmo:lopl1:1,2017-10-06T17:21:00Z,28.8850,-90.0250,10.0,10.8,40.0,14.9,'1111122,1111122,1111122' 
LOOP,urn:ioos:station:wmo:lopl1:1,2017-10-06T18:26:00Z,28.8850,-90.0250,10.0,12.9,60.0,14.9,'1111122,1111122,1111122' 
LOOP,urn:ioos:station:wmo:lopl1:1,2017-10-06T19:26:00Z,28.8850,-90.0250,10.0,10.3,60.0,12.9,'1111122,1111122,1111122' 
LOOP,urn:ioos:station:wmo:lopl1:1,2017-10-06T20:26:00Z,28.8850,-90.0250,10.0,10.8,50.0,13.4,'1111122,1111122,1111122' 
LOOP,urn:ioos:station:wmo:lopl1:1,2017-10-06T21:31:00Z,28.8850,-90.0250,10.0,10.3,60.0,13.4,'1111122,1111122,1111122' 
LOOP,urn:ioos:station:wmo:lopl1:1,2017-10-06T22:31:00Z,28.8850,-90.0250,10.0,12.9,80.0,14.4,'1111122,1111122,1111122' 
LOOP,urn:ioos:station:wmo:lopl1:1,2017-10-06T23:31:00Z,28.8850,-90.0250,10.0,12.9,90.0,14.4,'1111122,1111122,1111122' 
LOOP,urn:ioos:station:wmo:lopl1:1,2017-10-07T00:36:00Z,28.8850,-90.0250,10.0,11.8,90.0,12.9,'1111122,1111122,1111122' 
LOOP,urn:ioos:station:wmo:lopl1:1,2017-10-07T01:36:00Z,28.8850,-90.0250,10.0,8.8,110.0,9.8,'1111122,1111122,1111122' 
LOOP,urn:ioos:station:wmo:lopl1:1,2017-10-07T02:36:00Z,28.8850,-90.0250,10.0,10.3,90.0,11.3,'1111122,1111122,1111122' 
LOOP,urn:ioos:station:wmo:lopl1:1,2017-10-07T03:41:00Z,28.8850,-90.0250,10.0,10.9,101.0,12.3,'11111222,11111222,11111222' 
LOOP,urn:ioos:station:wmo:lopl1:1,2017-10-07T04:41:00Z,28.8850,-90.0250,10.0,9.8,100.0,11.8,'1111122,1111122,1111122' 
LOOP,urn:ioos:station:wmo:lopl1:1,2017-10-07T05:46:00Z,28.8850,-90.0250,10.0,10.3,90.0,11.8,'1111122,1111122,1111122' 
LOOP,urn:ioos:station:wmo:lopl1:1,2017-10-07T06:46:00Z,28.8850,-90.0250,10.0,9.8,90.0,10.8,'1111122,1111122,1111122' 
LOOP,urn:ioos:station:wmo:lopl1:1,2017-10-07T07:51:00Z,28.8850,-90.0250,10.0,9.8,110.0,10.8,'1111122,1111122,1111122' 
LOOP,urn:ioos:station:wmo:lopl1:1,2017-10-07T08:51:00Z,28.8850,-90.0250,10.0,9.8,100.0,10.3,'1111122,1111122,1111122' 
LOOP,urn:ioos:station:wmo:lopl1:1,2017-10-07T09:51:00Z,28.8850,-90.0250,10.0,12.4,160.0,14.4,'1111122,1111122,1111122' 
LOOP,urn:ioos:station:wmo:lopl1:1,2017-10-07T10:56:00Z,28.8850,-90.0250,10.0,9.8,110.0,10.8,'1111122,1111122,1111122' 
LOOP,urn:ioos:station:wmo:lopl1:1,2017-10-07T11:56:00Z,28.8850,-90.0250,10.0,8.2,100.0,9.8,'1111122,1111122,1111122' 
LOOP,urn:ioos:station:wmo:lopl1:1,2017-10-07T13:01:00Z,28.8850,-90.0250,10.0,8.8,90.0,9.8,'1111122,1111122,1111122' 
LOOP,urn:ioos:station:wmo:lopl1:1,2017-10-07T14:01:00Z,28.8850,-90.0250,10.0,9.3,70.0,10.8,'1111122,1111122,1111122' 
LOOP,urn:ioos:station:wmo:lopl1:1,2017-10-07T15:01:00Z,28.8850,-90.0250,10.0,8.8,60.0,11.3,'1111122,1111122,1111122' 
LOOP,urn:ioos:station:wmo:lopl1:1,2017-10-07T16:06:00Z,28.8850,-90.0250,10.0,9.3,40.0,10.8,'1111122,1111122,1111122' 
LOOP,urn:ioos:station:wmo:lopl1:1,2017-10-07T17:06:00Z,28.8850,-90.0250,10.0,9.8,70.0,11.8,'1111122,1111122,1111122' 
LOOP,urn:ioos:station:wmo:lopl1:1,2017-10-07T18:11:00Z,28.8850,-90.0250,10.0,14.4,90.0,19.6,'1111122,1111122,1111122' 
LOOP,urn:ioos:station:wmo:lopl1:1,2017-10-07T19:11:00Z,28.8850,-90.0250,10.0,11.3,20.0,17.0,'1111122,1111122,1111122' 
LOOP,urn:ioos:station:wmo:lopl1:1,2017-10-07T20:11:00Z,28.8850,-90.0250,10.0,14.9,80.0,17.0,'1111122,1111122,1111122' 
LOOP,urn:ioos:station:wmo:lopl1:1,2017-10-07T21:16:00Z,28.8850,-90.0250,10.0,13.4,30.0,16.5,'1111122,1111122,1111122' 
LOOP,urn:ioos:station:wmo:lopl1:1,2017-10-07T22:16:00Z,28.8850,-90.0250,10.0,14.9,10.0,17.5,'1111122,1111122,1111122' 
LOOP,urn:ioos:station:wmo:lopl1:1,2017-10-07T23:21:00Z,28.8850,-90.0250,10.0,8.2,360.0,13.4,'1111122,1111122,1111122' 
LOOP,urn:ioos:station:wmo:lopl1:1,2017-10-08T00:36:00Z,28.8850,-90.0250,10.0,11.8,330.0,16.5,'1111122,1111122,1111122' 
LOOP,urn:ioos:station:wmo:lopl1:1,2017-10-08T01:44:00Z,28.8850,-90.0250,10.0,10.3,310.0,14.9,'1111122,1111122,1111122' 
LOOP,urn:ioos:station:wmo:lopl1:1,2017-10-08T02:44:00Z,28.8850,-90.0250,10.0,4.6,310.0,8.8,'1111122,1111122,1111122' 
LOOP,urn:ioos:station:wmo:lopl1:1,2017-10-08T03:44:00Z,28.8850,-90.0250,10.0,6.2,290.0,8.8,'1111122,1111122,1111122' 
LOOP,urn:ioos:station:wmo:lopl1:1,2017-10-08T04:44:00Z,28.8850,-90.0250,10.0,5.1,270.0,8.8,'1111122,1111122,1111122' 
LOOP,urn:ioos:station:wmo:lopl1:1,2017-10-08T05:44:00Z,28.8850,-90.0250,10.0,4.6,-9999.0,7.7,'1111122,1111122,1111122' 
LOOP,urn:ioos:station:wmo:lopl1:1,2017-10-08T06:49:00Z,28.8850,-90.0250,10.0,4.6,290.0,6.7,'1111122,1111122,1111122' 
LOOP,urn:ioos:station:wmo:lopl1:1,2017-10-08T07:49:00Z,28.8850,-90.0250,10.0,5.7,280.0,9.8,'1111122,1111122,1111122' 
LOOP,urn:ioos:station:wmo:lopl1:1,2017-10-08T08:54:00Z,28.8850,-90.0250,10.0,6.2,280.0,8.8,'1111122,1111122,1111122' 
LOOP,urn:ioos:station:wmo:lopl1:1,2017-10-08T09:54:00Z,28.8850,-90.0250,10.0,5.7,290.0,8.2,'1111122,1111122,1111122' 
LOOP,urn:ioos:station:wmo:lopl1:1,2017-10-08T10:59:00Z,28.8850,-90.0250,10.0,4.6,290.0,6.2,'1111122,1111122,1111122' 
LOOP,urn:ioos:station:wmo:lopl1:1,2017-10-08T11:59:00Z,28.8850,-90.0250,10.0,4.6,270.0,6.2,'1111122,1111122,1111122' 
LOOP,urn:ioos:station:wmo:lopl1:1,2017-10-08T12:56:00Z,28.8850,-90.0250,10.0,4.2,274.0,6.7,'11111222,11111222,11111222' 
LOOP,urn:ioos:station:wmo:lopl1:1,2017-10-09T18:23:00Z,28.8850,-90.0250,10.0,3.6,290.0,5.7,'1111122,1111122,1111122' 
LOOP,urn:ioos:station:wmo:lopl1:1,2017-10-09T19:23:00Z,28.8850,-90.0250,10.0,3.1,-9999.0,6.2,'1111122,1111122,1111122' 
LOOP,urn:ioos:station:wmo:lopl1:1,2017-10-09T20:23:00Z,28.8850,-90.0250,10.0,4.6,-9999.0,5.7,'1111122,1111122,1111122' 
LOOP,urn:ioos:station:wmo:lopl1:1,2017-10-09T21:23:00Z,28.8850,-90.0250,10.0,3.6,-9999.0,4.1,'1111122,1111122,1111122' 
LOOP,urn:ioos:station:wmo:lopl1:1,2017-10-09T22:23:00Z,28.8850,-90.0250,10.0,2.6,-9999.0,3.1,'1111122,1111122,1111122' 
LOOP,urn:ioos:station:wmo:lopl1:1,2017-10-09T23:23:00Z,28.8850,-90.0250,10.0,2.6,-9999.0,2.6,'1111122,1111122,1111122' 
LOOP,urn:ioos:station:wmo:lopl1:1,2017-10-10T00:23:00Z,28.8850,-90.0250,10.0,1.5,-9999.0,1.5,'1111122,1111122,1111122' 
LOOP,urn:ioos:station:wmo:lopl1:1,2017-10-10T01:23:00Z,28.8850,-90.0250,10.0,3.6,160.0,5.7,'1111122,1111122,1111122' 
LOOP,urn:ioos:station:wmo:lopl1:1,2017-10-10T02:23:00Z,28.8850,-90.0250,10.0,5.7,160.0,6.2,'1111122,1111122,1111122' 
LOOP,urn:ioos:station:wmo:lopl1:1,2017-10-10T03:23:00Z,28.8850,-90.0250,10.0,6.2,160.0,7.7,'1111122,1111122,1111122' 
LOOP,urn:ioos:station:wmo:lopl1:1,2017-10-10T04:23:00Z,28.8850,-90.0250,10.0,7.2,160.0,8.2,'1111122,1111122,1111122' 
LOOP,urn:ioos:station:wmo:lopl1:1,2017-10-10T05:28:00Z,28.8850,-90.0250,10.0,6.7,170.0,7.2,'1111122,1111122,1111122' 
LOOP,urn:ioos:station:wmo:lopl1:1,2017-10-10T06:28:00Z,28.8850,-90.0250,10.0,5.7,160.0,6.7,'1111122,1111122,1111122' 
LOOP,urn:ioos:station:wmo:lopl1:1,2017-10-10T07:28:00Z,28.8850,-90.0250,10.0,4.6,180.0,5.7,'1111122,1111122,1111122' 
LOOP,urn:ioos:station:wmo:lopl1:1,2017-10-10T08:28:00Z,28.8850,-90.0250,10.0,4.1,150.0,4.1,'1111122,1111122,1111122' 
LOOP,urn:ioos:station:wmo:lopl1:1,2017-10-10T09:28:00Z,28.8850,-90.0250,10.0,3.6,160.0,4.1,'1111122,1111122,1111122' 
LOOP,urn:ioos:station:wmo:lopl1:1,2017-10-10T10:28:00Z,28.8850,-90.0250,10.0,2.6,130.0,2.6,'1111122,1111122,1111122' 
LOOP,urn:ioos:station:wmo:lopl1:1,2017-10-10T11:28:00Z,28.8850,-90.0250,10.0,1.5,80.0,1.5,'1111122,1111122,1111122' 
LOOP,urn:ioos:station:wmo:lopl1:1,2017-10-10T12:28:00Z,28.8850,-90.0250,10.0,2.6,20.0,3.1,'1111122,1111122,1111122' 
LOOP,urn:ioos:station:wmo:lopl1:1,2017-10-10T13:28:00Z,28.8850,-90.0250,10.0,3.1,40.0,4.1,'1111122,1111122,1111122' 
LOOP,urn:ioos:station:wmo:lopl1:1,2017-10-10T14:28:00Z,28.8850,-90.0250,10.0,6.7,90.0,7.7,'1111122,1111122,1111122' 
LOOP,urn:ioos:station:wmo:lopl1:1,2017-10-10T15:28:00Z,28.8850,-90.0250,10.0,4.1,90.0,4.6,'1111122,1111122,1111122' 